[[{"header":{"parameterUnit":"m.s-1","parameterCategory":1,"la1":30.2991,"la2":30.254,"lo1":-89.0895,"lo2":-89.0444,"dy":0.0017,"dx":0.0017,"nx":28,"ny":28,"refTime":"2024-06-29T21:00:00:Z","depth":0,"parameterNumber":2,"parameterNumberName":"U-component_of_WINDS"},"data":[0,0,0,0,0,0,0,0,0,0,0,0,0,0,0,0,0,0,0,0,0,0,0,0,0,0,0,0,0,0,0,0,0,0,0,0,0,0,0,0,0,0,0,0,0,0,0,0,0,0,0,0,0,0,0,0,0,0,3.2906,3.2907,0,3.3077,3.3079,3.3081,3.3076,3.3074,3.3072,3.3069,3.3246,3.3253,3.3259,0,0,0,0,0,0,0,0,0,0,0,0,0,3.2575,3.2581,3.2905,3.2908,3.291,3.3076,3.3079,3.3081,3.3077,3.3074,3.3071,3.3068,3.3244,3.3252,3.326,0,0,0,0,0,0,0,0,0,0,0,0,0,3.273,3.2583,3.2905,3.2928,3.2931,3.3076,3.3079,3.3082,3.3077,3.3074,3.307,3.3067,3.3241,3.3251,3.3261,3.3395,0,0,3.3293,3.3297,0,0,0,0,0,0,0,0,3.2721,3.2742,3.2922,3.2926,3.2931,3.3052,3.3027,3.3187,3.3078,3.3022,3.3069,3.3065,3.3184,3.3199,3.3239,3.3403,3.3411,3.3294,3.33,3.3304,3.3307,0,0,0,0,0,0,0,3.271,3.2735,3.2973,3.2925,3.293,3.2929,3.2947,3.3057,3.3121,3.3027,3.3027,3.3047,3.3186,3.3229,3.3243,3.3413,3.3293,3.3303,3.3309,3.3313,3.3696,3.37,0,0,0,0,0,0,3.2695,3.2726,3.2968,3.2978,3.2815,3.2938,3.2958,3.3016,3.3119,3.3132,3.305,3.3046,3.3213,3.3231,3.3249,3.3412,3.3304,3.3314,3.332,3.3692,3.3697,3.3701,0,0,0,0,0,0,3.2688,3.2716,3.2961,3.2852,3.2883,3.2948,3.3013,3.3022,3.3064,3.3137,3.3148,3.3082,3.3211,3.3235,3.3359,3.3418,3.3319,3.3328,3.3687,3.3694,3.3699,3.3739,0,0,0,0,0,0,3.2678,3.2714,3.2765,3.2853,3.2889,3.3067,3.3016,3.3027,3.3082,3.3079,3.317,3.3182,3.321,3.3343,3.3369,3.3431,3.3336,3.3682,3.369,3.3697,3.3733,3.3746,3.3757,0,0,0,0,0,3.2667,3.277,3.2768,3.2797,3.2954,3.3071,3.3091,3.3121,3.3087,3.3139,3.3186,3.3179,3.3408,3.3356,3.3385,3.3451,3.3679,3.3688,3.3697,3.3728,3.3743,3.3757,0,0,0,0,0,0,3.2688,3.2782,3.2781,3.2916,3.2985,3.307,3.3136,3.3137,3.3218,3.3211,3.3245,3.3266,3.339,3.3433,3.3374,3.3585,3.3539,3.3554,3.3553,3.3568,3.358,3.3567,3.3345,0,0,0,0,0,3.2708,3.2794,3.2872,3.2984,3.3019,3.3072,3.3124,3.314,3.3214,3.3243,3.3299,3.3371,3.3459,3.3516,3.3601,3.3739,3.3759,3.3799,3.3811,3.382,3.3833,3.3909,3.3927,3.3731,3.3731,3.3731,0,0,3.2751,3.2813,3.2866,3.299,3.3046,3.3134,3.3097,3.3192,3.3258,3.3258,3.3378,3.3422,3.3504,3.3636,3.3697,3.3675,3.3892,3.3832,3.3839,3.3847,3.392,3.3939,3.3955,3.3737,3.3736,3.3735,0,0,3.2875,3.2931,3.303,3.3086,3.3171,3.3205,3.3229,3.3314,3.3343,3.3464,3.3465,3.3545,3.3696,3.3754,3.3804,3.3949,3.3946,3.3976,3.4039,3.4113,3.4128,3.4142,3.4193,3.4211,3.3989,3.3989,3.3989,0,3.2918,3.3051,3.3081,3.3177,3.3231,3.3234,3.3335,3.3388,3.3497,3.3534,3.3509,3.3698,3.3754,3.3899,3.3935,3.3975,3.4003,3.3966,3.4123,3.4138,3.4151,3.42,3.422,3.3992,3.3992,3.3991,3.3991,0,3.3099,3.3192,3.3261,3.3365,3.3428,3.3525,3.357,3.363,3.3641,3.3678,3.3802,3.3869,3.3967,3.4003,3.4016,3.415,3.4134,3.4116,3.407,3.4172,3.4219,3.4238,3.3996,3.3995,3.3994,3.3993,0,0,3.3241,3.3359,3.3385,3.3431,3.3525,3.3597,3.3695,3.3791,3.3841,3.3916,3.3999,3.4127,3.411,3.4166,3.4186,3.425,3.4361,3.4224,3.4227,3.4247,3.4512,3.4525,3.4546,3.4359,3.4363,3.4366,3.4505,0,3.3374,3.3547,3.3576,3.3728,3.3813,3.3818,3.3903,3.397,3.4008,3.4086,3.4127,3.4217,3.4189,3.4223,3.4287,3.4334,3.4414,3.4324,3.4437,3.444,3.4415,3.4571,3.4585,3.4712,3.4524,3.4527,3.4529,0,3.3552,3.363,3.379,3.3872,3.3909,3.3985,3.4075,3.415,3.4226,3.4248,3.4311,3.4323,3.4425,3.4375,3.4515,3.4453,3.4501,3.4531,3.4537,3.4548,3.449,3.4585,3.4754,3.4773,3.4559,3.4556,3.4554,0,3.3638,3.3784,3.3898,3.3938,3.4037,3.409,3.4134,3.4206,3.4262,3.434,3.4377,3.4467,3.4516,3.4585,3.4621,3.4582,3.4759,3.4712,3.4781,3.478,3.4817,3.4814,3.4995,3.485,3.485,3.4849,3.4849,0,3.3782,3.388,3.3938,3.4008,3.4118,3.4151,3.4258,3.4301,3.4365,3.4444,3.4454,3.4528,3.4571,3.4651,3.468,3.4792,3.4814,3.4835,3.4842,3.4834,3.4831,3.4865,3.4857,3.4854,3.4853,3.4852,3.4851,0,3.3897,3.394,3.4065,3.4147,3.417,3.4247,3.4318,3.4387,3.4424,3.4524,3.4549,3.4607,3.4702,3.4745,3.4862,3.4882,3.5009,3.501,3.4983,3.4985,3.5051,3.5044,3.5259,3.5289,3.5124,3.5126,3.5127,0,3.3986,3.4061,3.4152,3.4205,3.4249,3.4335,3.4392,3.4427,3.4486,3.4578,3.4635,3.473,3.4808,3.496,3.5013,3.5103,3.5105,3.5174,3.5118,3.5108,3.5105,3.5099,3.5107,3.5184,3.5186,3.5187,3.5188,0,3.4139,3.4157,3.4237,3.4326,3.4393,3.4464,3.4534,3.4577,3.4624,3.4689,3.4786,3.4846,3.4966,3.506,3.5153,3.5198,3.5201,3.5205,3.5226,3.5218,3.5199,3.5209,3.501,3.52,3.5199,3.5198,3.5197,3.5197,3.4244,3.431,3.4384,3.4473,3.453,3.4595,3.4663,3.4708,3.4789,3.4889,3.4905,3.5008,3.5082,3.5207,3.5256,3.5337,3.5321,3.5351,3.5358,3.5364,3.5368,3.5187,3.5355,3.5354,3.5354,3.5354,3.5354,0,3.4397,3.4444,3.4526,3.4623,3.4694,3.469,3.4767,3.4826,3.4916,3.4985,3.5061,3.5172,3.5263,3.5324,3.5416,3.547,3.5473,3.5493,3.5489,3.5499,3.5378,3.535,3.5488,3.5488,3.5488,3.5488,3.5488,3.5488,3.4484,3.4596,3.4622,3.4762,3.481,3.491,3.4954,3.5014,3.5069,3.5192,3.5268,3.5306,3.5372,3.5469,3.5553,3.5568,3.5601,3.5621,3.5636,3.5522,3.5507,3.5494,3.5468,3.5628,3.5629,3.575,3.5751,3.5752]},{"header":{"parameterUnit":"m.s-1","parameterCategory":1,"la1":30.2991,"la2":30.254,"lo1":-89.0895,"lo2":-89.0444,"dy":0.0017,"dx":0.0017,"nx":28,"ny":28,"refTime":"2024-06-29T21:00:00:Z","depth":0,"parameterNumber":3,"parameterNumberName":"V-component_of_WINDS"},"data":[0,0,0,0,0,0,0,0,0,0,0,0,0,0,0,0,0,0,0,0,0,0,0,0,0,0,0,0,0,0,0,0,0,0,0,0,0,0,0,0,0,0,0,0,0,0,0,0,0,0,0,0,0,0,0,0,0,0,-0.4242,-0.4242,0,-0.427,-0.427,-0.4271,-0.4313,-0.4314,-0.4314,-0.4315,-0.4343,-0.4343,-0.4343,0,0,0,0,0,0,0,0,0,0,0,0,0,-0.4223,-0.4223,-0.4242,-0.4242,-0.4242,-0.427,-0.427,-0.4271,-0.4313,-0.4314,-0.4314,-0.4315,-0.4343,-0.4343,-0.4343,0,0,0,0,0,0,0,0,0,0,0,0,0,-0.4239,-0.4223,-0.4242,-0.4267,-0.4269,-0.427,-0.427,-0.4271,-0.4312,-0.4314,-0.4315,-0.4316,-0.4343,-0.4343,-0.4343,-0.4321,0,0,-0.4343,-0.4343,0,0,0,0,0,0,0,0,-0.4238,-0.424,-0.4263,-0.4265,-0.4268,-0.4289,-0.4274,-0.4288,-0.4312,-0.4296,-0.4315,-0.4316,-0.4324,-0.4326,-0.4328,-0.4322,-0.4323,-0.4343,-0.4343,-0.4343,-0.4343,0,0,0,0,0,0,0,-0.4237,-0.4239,-0.4253,-0.4263,-0.4266,-0.4276,-0.428,-0.4277,-0.4303,-0.4297,-0.4301,-0.4303,-0.4325,-0.4328,-0.4329,-0.4324,-0.4343,-0.4343,-0.4343,-0.4343,-0.4301,-0.4299,0,0,0,0,0,0,-0.4232,-0.4237,-0.4252,-0.4254,-0.4255,-0.4276,-0.428,-0.4281,-0.4303,-0.4308,-0.4302,-0.4305,-0.4328,-0.4329,-0.433,-0.4306,-0.4343,-0.4343,-0.4343,-0.4302,-0.43,-0.4299,0,0,0,0,0,0,-0.4232,-0.4233,-0.4251,-0.4246,-0.4249,-0.4275,-0.4276,-0.4281,-0.4284,-0.4307,-0.4312,-0.43,-0.4328,-0.433,-0.4323,-0.4307,-0.4343,-0.4343,-0.4303,-0.4301,-0.43,-0.4256,0,0,0,0,0,0,-0.4231,-0.4233,-0.4225,-0.4246,-0.425,-0.4243,-0.4275,-0.4281,-0.4284,-0.4288,-0.4307,-0.4311,-0.433,-0.4323,-0.4323,-0.4308,-0.4343,-0.4305,-0.4302,-0.43,-0.4259,-0.4253,-0.4248,0,0,0,0,0,-0.423,-0.4211,-0.4224,-0.4226,-0.424,-0.4242,-0.4244,-0.4266,-0.4283,-0.4274,-0.429,-0.431,-0.4309,-0.4321,-0.4322,-0.4307,-0.4306,-0.4303,-0.43,-0.4261,-0.4254,-0.4248,0,0,0,0,0,0,-0.4187,-0.4214,-0.4229,-0.4216,-0.4226,-0.4249,-0.4239,-0.4258,-0.4263,-0.4267,-0.4294,-0.4298,-0.4287,-0.4296,-0.431,-0.4287,-0.4311,-0.4308,-0.428,-0.4274,-0.4268,-0.4266,-0.4343,0,0,0,0,0,-0.4176,-0.4175,-0.4199,-0.4186,-0.419,-0.4214,-0.4215,-0.4232,-0.4243,-0.4248,-0.4262,-0.4272,-0.4274,-0.4275,-0.4278,-0.4261,-0.4265,-0.4251,-0.4245,-0.4241,-0.4238,-0.4229,-0.4222,-0.429,-0.429,-0.429,0,0,-0.4153,-0.4168,-0.4166,-0.4177,-0.4187,-0.4185,-0.4217,-0.4214,-0.4213,-0.4247,-0.4241,-0.4252,-0.4265,-0.4252,-0.4248,-0.426,-0.422,-0.4237,-0.4233,-0.4233,-0.4225,-0.4219,-0.4213,-0.4289,-0.4289,-0.4289,0,0,-0.411,-0.4122,-0.4111,-0.4121,-0.4135,-0.4152,-0.4149,-0.4169,-0.4178,-0.4172,-0.4198,-0.4197,-0.42,-0.4208,-0.4212,-0.4173,-0.4191,-0.4173,-0.4144,-0.4135,-0.4129,-0.4125,-0.411,-0.4104,-0.417,-0.417,-0.417,0,-0.4079,-0.4078,-0.4104,-0.4099,-0.4103,-0.4135,-0.4124,-0.4132,-0.4147,-0.4149,-0.4163,-0.4167,-0.4178,-0.4168,-0.4158,-0.4161,-0.4158,-0.417,-0.4128,-0.4124,-0.412,-0.4106,-0.41,-0.4168,-0.4168,-0.4168,-0.4169,0,-0.404,-0.4038,-0.4028,-0.4042,-0.4045,-0.4037,-0.4061,-0.4062,-0.4078,-0.4092,-0.4086,-0.4101,-0.4107,-0.4106,-0.4122,-0.4098,-0.4105,-0.4123,-0.4147,-0.411,-0.4097,-0.4092,-0.4164,-0.4165,-0.4166,-0.4167,0,0,-0.3969,-0.3997,-0.3993,-0.3999,-0.4018,-0.4018,-0.4011,-0.4018,-0.4017,-0.4027,-0.4022,-0.4024,-0.4041,-0.4046,-0.4063,-0.4055,-0.4022,-0.4075,-0.4075,-0.4063,-0.3995,-0.398,-0.3974,-0.4035,-0.4035,-0.4034,-0.3994,0,-0.3929,-0.392,-0.3943,-0.3928,-0.3927,-0.3957,-0.3952,-0.3962,-0.3976,-0.3977,-0.3992,-0.3992,-0.4015,-0.4019,-0.4012,-0.4027,-0.4009,-0.4031,-0.403,-0.403,-0.4024,-0.3967,-0.3952,-0.3913,-0.3989,-0.3988,-0.3988,0,-0.388,-0.3887,-0.3872,-0.3892,-0.3892,-0.3887,-0.3895,-0.3896,-0.3908,-0.3919,-0.3924,-0.3945,-0.394,-0.3964,-0.3957,-0.3972,-0.3973,-0.398,-0.398,-0.3979,-0.4005,-0.3964,-0.3901,-0.3895,-0.398,-0.3981,-0.3981,0,-0.3829,-0.3835,-0.3826,-0.3831,-0.3854,-0.3849,-0.3859,-0.3873,-0.3875,-0.3882,-0.3884,-0.389,-0.3893,-0.3898,-0.3919,-0.3935,-0.3909,-0.3935,-0.3917,-0.3916,-0.3909,-0.3908,-0.3844,-0.3912,-0.3912,-0.3912,-0.3912,0,-0.3781,-0.377,-0.3804,-0.3798,-0.3787,-0.3814,-0.3802,-0.3814,-0.3827,-0.3824,-0.3851,-0.3848,-0.3877,-0.3877,-0.3894,-0.3885,-0.3887,-0.3894,-0.3898,-0.3891,-0.389,-0.3891,-0.3894,-0.391,-0.3911,-0.3911,-0.3911,0,-0.3721,-0.3743,-0.3735,-0.3758,-0.3763,-0.3754,-0.3773,-0.3769,-0.3785,-0.3781,-0.3782,-0.3806,-0.3807,-0.383,-0.3836,-0.3847,-0.3831,-0.3841,-0.3826,-0.3829,-0.3809,-0.381,-0.3741,-0.3733,-0.3807,-0.3807,-0.3806,0,-0.3688,-0.368,-0.3702,-0.3702,-0.371,-0.3711,-0.3714,-0.374,-0.3742,-0.3756,-0.375,-0.3753,-0.3757,-0.3758,-0.3776,-0.3781,-0.3791,-0.3766,-0.3791,-0.3784,-0.3789,-0.3788,-0.3787,-0.376,-0.3759,-0.3759,-0.3758,0,-0.3627,-0.3638,-0.3641,-0.3648,-0.3651,-0.3658,-0.3666,-0.3665,-0.3693,-0.3694,-0.3696,-0.3699,-0.3706,-0.3709,-0.3717,-0.3726,-0.3746,-0.375,-0.3746,-0.3737,-0.3729,-0.3732,-0.381,-0.3751,-0.3752,-0.3753,-0.3753,-0.3753,-0.3578,-0.3573,-0.3587,-0.359,-0.3599,-0.3606,-0.3603,-0.3619,-0.3621,-0.3628,-0.3644,-0.3643,-0.3656,-0.3669,-0.3677,-0.3677,-0.3689,-0.3683,-0.3681,-0.3679,-0.3674,-0.373,-0.3678,-0.3679,-0.3679,-0.3679,-0.3679,0,-0.3518,-0.3529,-0.3531,-0.3542,-0.3544,-0.3564,-0.3574,-0.3574,-0.3573,-0.3584,-0.3588,-0.359,-0.3593,-0.3611,-0.3617,-0.3613,-0.3622,-0.3613,-0.3613,-0.3614,-0.3664,-0.3666,-0.3605,-0.3605,-0.3605,-0.3605,-0.3605,-0.3605,-0.3486,-0.3478,-0.3491,-0.3487,-0.3498,-0.3498,-0.3502,-0.3509,-0.3517,-0.3518,-0.3521,-0.3534,-0.3547,-0.3554,-0.3557,-0.3563,-0.3563,-0.355,-0.3559,-0.3604,-0.3611,-0.3618,-0.362,-0.3551,-0.355,-0.3509,-0.3509,-0.3509]}]]